Weather History for Poplar Bluff, MO

Change the Weather History Date:

Sunday, March 3, 2013

  Actual Average Record
Temperature  
Mean Temperature 32 °F -  
Max Temperature 43 °F 55 °F 81 °F (1918)
Min Temperature 21 °F 35 °F 0 °F (1943)
Degree Days  
Heating Degree Days 33    
Moisture  
Dew Point 23 °F    
Average Humidity 65    
Maximum Humidity 82    
Minimum Humidity 47    
Precipitation  
Precipitation 0.00 in - - ()
Sea Level Pressure  
Sea Level Pressure 30.16 in    
Wind  
Wind Speed 3 mph (SSE)    
Max Wind Speed 10 mph    
Max Gust Speed -    
Visibility 10 miles    
Events      
Averages and records for this station are not official NWS values.
T = Trace of Precipitation, MM = Missing Value Source: NWS Daily Summary

Daily Weather History Graph

Daily Weather History Graph

Search for Another Location

Airport:

Trip Planner

Search our weather history database for the weather conditions in past years. The results will help you decide how hot, cold, wet, or windy it might be!

Date:

Astronomy

Mar. 03, 2013 Rise Set
Actual Time 6:28 AM CST 5:57 PM CST
Civil Twilight 6:03 AM CST 6:23 PM CST
Nautical Twilight 5:33 AM CST 6:53 PM CST
Astronomical Twilight 5:03 AM CST 7:23 PM CST
Moon No Moon Rise 9:54 AM CST (3/3)
Length of Visible Light 12h 20m
Length of Day
11h 28m
Waning Gibbous, 63% of the Moon is Illuminated
Mar 3
Waning Gibbous
Mar 4
Last Quarter
Mar 11
New
Mar 19
First Quarter
Mar 27
Full

Hourly Weather History & Observations

Time (CST) Temp. Windchill Dew Point Humidity Pressure Visibility Wind Dir Wind Speed Gust Speed Precip Events Conditions
12:53 AM 25.0 °F 20.7 °F 19.9 °F 81% 30.25 in 10.0 mi North 3.5 mph - N/A   Clear
1:53 AM 26.1 °F - 18.0 °F 71% 30.25 in 10.0 mi Calm Calm - N/A   Clear
2:53 AM 24.1 °F - 18.0 °F 77% 30.24 in 10.0 mi Calm Calm - N/A   Clear
3:53 AM 23.0 °F - 18.0 °F 81% 30.24 in 10.0 mi Calm Calm - N/A   Clear
4:53 AM 23.0 °F - 17.1 °F 78% 30.22 in 10.0 mi Calm Calm - N/A   Clear
6:53 AM 21.9 °F - 17.1 °F 82% 30.23 in 10.0 mi Calm Calm - N/A   Clear
7:53 AM 26.1 °F 21.9 °F 19.0 °F 75% 30.24 in 10.0 mi NW 3.5 mph - N/A   Clear
8:53 AM 30.9 °F - 19.0 °F 61% 30.25 in 10.0 mi Calm Calm - N/A   Clear
9:53 AM 33.1 °F - 19.0 °F 56% 30.24 in 10.0 mi Calm Calm - N/A   Clear
10:53 AM 34.0 °F 28.8 °F 19.9 °F 56% 30.23 in 10.0 mi South 5.8 mph - N/A   Mostly Cloudy
11:53 AM 37.0 °F 32.4 °F 23.0 °F 57% 30.21 in 10.0 mi South 5.8 mph - N/A   Overcast
12:53 PM 37.9 °F 33.5 °F 23.0 °F 55% 30.17 in 10.0 mi Variable 5.8 mph - N/A   Scattered Clouds
1:53 PM 39.9 °F 35.1 °F 23.0 °F 51% 30.14 in 10.0 mi SSW 6.9 mph - N/A   Scattered Clouds
2:53 PM 41.0 °F 34.7 °F 26.1 °F 55% 30.12 in 10.0 mi South 10.4 mph - N/A   Partly Cloudy
3:53 PM 42.1 °F 37.1 °F 23.0 °F 47% 30.10 in 10.0 mi South 8.1 mph - N/A   Mostly Cloudy
4:53 PM 43.0 °F 38.8 °F 26.1 °F 51% 30.10 in 10.0 mi South 6.9 mph - N/A   Mostly Cloudy
5:53 PM 42.1 °F 39.2 °F 28.9 °F 60% 30.07 in 10.0 mi SE 4.6 mph - N/A   Overcast
6:53 PM 39.9 °F 35.8 °F 28.9 °F 65% 30.08 in 10.0 mi SE 5.8 mph - N/A   Overcast
7:53 PM 39.9 °F 35.8 °F 28.9 °F 65% 30.09 in 10.0 mi SE 5.8 mph - N/A   Overcast
8:53 PM 39.9 °F 35.8 °F 28.9 °F 65% 30.09 in 10.0 mi SE 5.8 mph - N/A   Overcast
9:53 PM 39.0 °F 34.8 °F 30.0 °F 70% 30.08 in 10.0 mi SE 5.8 mph - N/A   Mostly Cloudy
10:53 PM 39.0 °F 34.0 °F 28.9 °F 67% 30.06 in 10.0 mi SE 6.9 mph - N/A   Overcast
11:53 PM 37.9 °F 34.4 °F 30.0 °F 73% 30.07 in 10.0 mi SSE 4.6 mph - N/A   Clear